Weather in Solonka

Russia / Volgograd Oblast     50°11′56″N   41°27′56″E
temp.,
°C
wind,
m/s
gust,
m/s
humid.,
%
clouds,
%
prec.,
mm/h
press.,
hPa
HPBL,
m
3 august, tue
tue300:00+25sw224042 0.0 101012
03:00+23wsw224810 0.0 101011
06:00+24w23515 0.0 101063
09:00+30wsw343898 0.0 1010565
12:00+34wsw57292 0.0 10102571
15:00+32wnw57357 0.0 10101381
18:00+24wnw61269100 0.4 1011425
21:00+20w2385100 2.1 101254
4 august, wed
wed400:00+20nw1489100 0.6 1013102
03:00+19sw119593 4.6 101346
06:00+19w3694100 0.0 1014203
09:00+23nnw57623 0.0 1014742
12:00+27nw664227 0.0 10151748
15:00+28nw55344 0.0 10142502
18:00+25nnw67417 0.0 1015650
21:00+20n355699 0.0 101666
5 august, thu
thu500:00+19n2358100 0.0 101730
03:00+18n2260100 0.0 101722
06:00+18nne23605 0.0 101862
09:00+24ne2241100 0.0 1018612
12:00+28n11305 0.0 10172272
15:00+29nw1127100 0.0 10162475
18:00+28nnw1131100 0.0 1015636
21:00+22nne344254 0.0 101658
6 august, fri
fri600:00+20e46475 0.0 101592
03:00+18ese48535 0.0 1016136
06:00+19ese4115122 0.0 1016226
09:00+27se5732100 0.0 1015679
12:00+31se45245 0.0 10132303
15:00+33se45213 0.0 10112772
18:00+32sse352433 0.0 1010719
21:00+26e45325 0.0 101161
7 august, sat
sat700:00+24ese61635100 0.0 1011399
03:00+23ese61532100 0.0 1011355
06:00+24se61531100 0.0 1011405
09:00+27se61126100 0.0 1011546
12:00+33se7919100 0.0 10111753
15:00+35se771799 0.0 10102481
18:00+33ese68198 0.0 10101235
21:00+26ese5132693 0.0 1011246